Time,TemperatureF,DewpointF,PressureIn,WindDirection,WindDirectionDegrees,WindSpeedMPH,WindSpeedGustMPH,Humidity,HourlyPrecipIn,Conditions,Clouds,dailyrainin,SoftwareType,DateUTC
2013-05-28 00:21:00,64.0,60.0,29.88,ESE,120,3.0,-999.0,87,0.00,,,-99.99,,2013-05-28 07:21:00,
2013-05-28 00:32:00,64.0,60.0,29.88,ESE,120,3.0,-999.0,87,0.00,,,-99.99,,2013-05-28 07:32:00,
2013-05-28 00:42:00,64.0,60.0,29.88,ESE,120,3.0,-999.0,87,0.00,,,-99.99,,2013-05-28 07:42:00,
2013-05-28 01:21:00,64.0,60.0,29.87,SE,130,1.0,-999.0,88,0.00,,,-99.99,,2013-05-28 08:21:00,
2013-05-28 01:32:00,64.0,60.0,29.87,SE,130,1.0,-999.0,88,0.00,,,-99.99,,2013-05-28 08:32:00,
2013-05-28 01:42:00,64.0,60.0,29.87,SE,130,1.0,-999.0,88,0.00,,,-99.99,,2013-05-28 08:42:00,
2013-05-28 02:21:00,64.0,60.0,29.85,ESE,120,2.0,-999.0,88,0.00,,,-99.99,,2013-05-28 09:21:00,
2013-05-28 02:33:00,64.0,60.0,29.85,ESE,120,2.0,-999.0,88,0.00,,,-99.99,,2013-05-28 09:33:00,
2013-05-28 02:42:00,64.0,60.0,29.85,ESE,120,2.0,-999.0,88,0.00,,,-99.99,,2013-05-28 09:42:00,
2013-05-28 03:22:00,64.0,60.0,29.86,SE,130,5.0,-999.0,87,0.00,,,-99.99,,2013-05-28 10:22:00,
2013-05-28 03:32:00,64.0,60.0,29.86,SE,130,5.0,-999.0,87,0.00,,,-99.99,,2013-05-28 10:32:00,
2013-05-28 03:42:00,64.0,60.0,29.86,SE,130,5.0,-999.0,87,0.00,,,-99.99,,2013-05-28 10:42:00,
2013-05-28 04:22:00,64.0,60.0,29.83,SE,130,5.0,-999.0,87,0.00,,,-99.99,,2013-05-28 11:22:00,
2013-05-28 04:32:00,64.0,60.0,29.83,SE,130,5.0,-999.0,87,0.00,,,-99.99,,2013-05-28 11:32:00,
2013-05-28 04:41:00,64.0,60.0,29.83,SE,130,5.0,-999.0,87,0.00,,,-99.99,,2013-05-28 11:41:00,
2013-05-28 05:21:00,64.0,60.0,29.83,North,0,0.0,-999.0,87,0.00,,,-99.99,,2013-05-28 12:21:00,
2013-05-28 05:31:00,64.0,60.0,29.83,North,0,0.0,-999.0,87,0.00,,,-99.99,,2013-05-28 12:31:00,
2013-05-28 05:42:00,64.0,60.0,29.83,North,0,0.0,-999.0,87,0.00,,,-99.99,,2013-05-28 12:42:00,
2013-05-28 06:21:00,64.0,60.0,29.83,North,0,0.0,-999.0,86,0.00,,,-99.99,,2013-05-28 13:21:00,
2013-05-28 06:32:00,64.0,60.0,29.83,North,0,0.0,-999.0,86,0.00,,,-99.99,,2013-05-28 13:32:00,
2013-05-28 06:42:00,64.0,60.0,29.83,North,0,0.0,-999.0,86,0.00,,,-99.99,,2013-05-28 13:42:00,
2013-05-28 07:21:00,64.0,59.0,29.84,North,0,0.0,-999.0,83,0.00,,,-99.99,,2013-05-28 14:21:00,
2013-05-28 07:32:00,64.0,59.0,29.84,North,0,0.0,-999.0,83,0.00,,,-99.99,,2013-05-28 14:32:00,
2013-05-28 07:41:00,64.0,59.0,29.84,North,0,0.0,-999.0,83,0.00,,,-99.99,,2013-05-28 14:41:00,
2013-05-28 08:21:00,65.0,59.0,29.84,ESE,120,1.0,-999.0,81,0.00,,,-99.99,,2013-05-28 15:21:00,
2013-05-28 08:32:00,65.0,59.0,29.84,ESE,120,1.0,-999.0,81,0.00,,,-99.99,,2013-05-28 15:32:00,
2013-05-28 08:43:00,65.0,59.0,29.84,ESE,120,1.0,-999.0,81,0.00,,,-99.99,,2013-05-28 15:43:00,
2013-05-28 09:22:00,66.0,60.0,29.85,North,0,0.0,-999.0,81,0.00,,,-99.99,,2013-05-28 16:22:00,
2013-05-28 09:33:00,66.0,60.0,29.85,North,0,0.0,-999.0,81,0.00,,,-99.99,,2013-05-28 16:33:00,
2013-05-28 09:42:00,66.0,60.0,29.85,North,0,0.0,-999.0,81,0.00,,,-99.99,,2013-05-28 16:42:00,
2013-05-28 10:22:00,68.0,61.0,29.84,SE,130,2.0,-999.0,79,0.00,,,-99.99,,2013-05-28 17:22:00,
2013-05-28 10:32:00,68.0,61.0,29.84,SE,130,2.0,-999.0,79,0.00,,,-99.99,,2013-05-28 17:32:00,
2013-05-28 10:41:00,68.0,61.0,29.84,SE,130,2.0,-999.0,79,0.00,,,-99.99,,2013-05-28 17:41:00,
2013-05-28 11:21:00,69.0,62.0,29.85,South,190,3.0,-999.0,78,0.00,,,-99.99,,2013-05-28 18:21:00,
2013-05-28 11:32:00,69.0,62.0,29.85,South,190,3.0,-999.0,78,0.00,,,-99.99,,2013-05-28 18:32:00,
2013-05-28 11:42:00,69.0,62.0,29.85,South,190,3.0,-999.0,78,0.00,,,-99.99,,2013-05-28 18:42:00,
2013-05-28 12:21:00,70.0,62.0,29.84,South,190,2.0,-999.0,76,0.00,,,-99.99,,2013-05-28 19:21:00,
2013-05-28 12:32:00,70.0,62.0,29.84,South,190,2.0,-999.0,76,0.00,,,-99.99,,2013-05-28 19:32:00,
2013-05-28 12:41:00,70.0,62.0,29.84,South,190,2.0,-999.0,76,0.00,,,-99.99,,2013-05-28 19:41:00,
2013-05-28 13:22:00,70.0,62.0,29.83,SSW,210,12.0,-999.0,76,0.00,,,-99.99,,2013-05-28 20:22:00,
2013-05-28 13:32:00,70.0,62.0,29.83,SSW,210,12.0,-999.0,76,0.00,,,-99.99,,2013-05-28 20:32:00,
2013-05-28 13:42:00,70.0,62.0,29.83,SSW,210,12.0,-999.0,76,0.00,,,-99.99,,2013-05-28 20:42:00,
2013-05-28 14:21:00,72.0,64.0,29.81,SW,230,6.0,-999.0,76,0.00,,,-99.99,,2013-05-28 21:21:00,
2013-05-28 14:33:00,72.0,64.0,29.81,SW,230,6.0,-999.0,76,0.00,,,-99.99,,2013-05-28 21:33:00,
2013-05-28 14:43:00,72.0,64.0,29.81,SW,230,6.0,-999.0,76,0.00,,,-99.99,,2013-05-28 21:43:00,
2013-05-28 15:22:00,72.0,64.0,29.80,SW,220,4.0,-999.0,76,0.00,,,-99.99,,2013-05-28 22:22:00,
2013-05-28 15:32:00,72.0,64.0,29.80,SW,220,4.0,-999.0,76,0.00,,,-99.99,,2013-05-28 22:32:00,
2013-05-28 15:42:00,72.0,64.0,29.80,SW,220,4.0,-999.0,76,0.00,,,-99.99,,2013-05-28 22:42:00,
2013-05-28 16:21:00,71.0,63.0,29.79,South,190,4.0,-999.0,77,0.00,,,-99.99,,2013-05-28 23:21:00,
2013-05-28 16:32:00,71.0,63.0,29.79,South,190,4.0,-999.0,77,0.00,,,-99.99,,2013-05-28 23:32:00,
2013-05-28 16:42:00,71.0,63.0,29.79,South,190,4.0,-999.0,77,0.00,,,-99.99,,2013-05-28 23:42:00,
2013-05-28 17:21:00,69.0,63.0,29.78,SSW,210,10.0,-999.0,81,0.00,,,-99.99,,2013-05-29 00:21:00,
2013-05-28 17:32:00,69.0,63.0,29.78,SSW,210,10.0,-999.0,81,0.00,,,-99.99,,2013-05-29 00:32:00,
2013-05-28 17:41:00,69.0,63.0,29.78,SSW,210,10.0,-999.0,81,0.00,,,-99.99,,2013-05-29 00:41:00,
2013-05-28 18:22:00,68.0,63.0,29.77,SSW,200,2.0,-999.0,83,0.00,,,-99.99,,2013-05-29 01:22:00,
2013-05-28 18:32:00,68.0,63.0,29.77,SSW,200,2.0,-999.0,83,0.00,,,-99.99,,2013-05-29 01:32:00,
2013-05-28 18:41:00,68.0,63.0,29.77,SSW,200,2.0,-999.0,83,0.00,,,-99.99,,2013-05-29 01:41:00,
2013-05-28 19:21:00,66.0,61.0,29.75,SSW,200,3.0,-999.0,84,0.00,,,-99.99,,2013-05-29 02:21:00,
2013-05-28 19:32:00,66.0,61.0,29.75,SSW,200,3.0,-999.0,84,0.00,,,-99.99,,2013-05-29 02:32:00,
2013-05-28 19:42:00,66.0,61.0,29.75,SSW,200,3.0,-999.0,84,0.00,,,-99.99,,2013-05-29 02:42:00,
2013-05-28 20:21:00,66.0,62.0,29.75,North,0,0.0,-999.0,87,0.00,,,-99.99,,2013-05-29 03:21:00,
2013-05-28 20:33:00,66.0,62.0,29.75,North,0,0.0,-999.0,87,0.00,,,-99.99,,2013-05-29 03:33:00,
2013-05-28 20:43:00,66.0,62.0,29.75,North,0,0.0,-999.0,87,0.00,,,-99.99,,2013-05-29 03:43:00,
2013-05-28 21:23:00,66.0,63.0,29.76,SE,130,4.0,-999.0,90,0.00,,,-99.99,,2013-05-29 04:23:00,
2013-05-28 21:33:00,66.0,63.0,29.76,SE,130,4.0,-999.0,90,0.00,,,-99.99,,2013-05-29 04:33:00,
2013-05-28 21:42:00,66.0,63.0,29.76,SE,130,4.0,-999.0,90,0.00,,,-99.99,,2013-05-29 04:42:00,
2013-05-28 22:22:00,65.0,62.0,29.78,SE,140,2.0,-999.0,90,0.00,,,-99.99,,2013-05-29 05:22:00,
2013-05-28 22:32:00,65.0,62.0,29.78,SE,140,2.0,-999.0,90,0.00,,,-99.99,,2013-05-29 05:32:00,
2013-05-28 22:42:00,65.0,62.0,29.78,SE,140,2.0,-999.0,90,0.00,,,-99.99,,2013-05-29 05:42:00,
2013-05-28 23:21:00,65.0,62.0,29.79,SE,140,1.0,-999.0,91,0.00,,,-99.99,,2013-05-29 06:21:00,
2013-05-28 23:31:00,65.0,62.0,29.79,SE,140,1.0,-999.0,91,0.00,,,-99.99,,2013-05-29 06:31:00,
2013-05-28 23:42:00,65.0,62.0,29.79,SE,140,1.0,-999.0,91,0.00,,,-99.99,,2013-05-29 06:42:00,